Back to catalog

TITAN 3C TRANSTAGE DEB

AliveMEO
NORAD 43515·DEBRIS·🇺🇸 United States

Launched Feb 9, 1969 from Cape Canaveral Space Force Station

Loading…

Next Passes (next 24 hours)

TLE

AgingSource: Space-Track

Epoch: Aug 29, 2026, 18:51 UTC

1 43515U 69013T   26241.78575905 -.00000184  00000-0  00000-0 0  9992
2 43515   1.9912  60.0111 0329603 146.7752 216.1539  0.95443792 28927

Track TITAN 3C TRANSTAGE DEB in real time with AllMySat

Download on the App Store